Time,TemperatureF,DewpointF,PressureIn,WindDirection,WindDirectionDegrees,WindSpeedMPH,WindSpeedGustMPH,Humidity,HourlyPrecipIn,Conditions,Clouds,dailyrainin,SoftwareType,DateUTC
2013-06-16 00:01:00,67.2,61.9,29.97,East,98,0.0,0.0,83,0.00,,BKN055,0.00,VWS V13.01,2013-06-16 04:01:00,
2013-06-16 00:06:00,67.3,62.0,29.97,East,98,0.0,0.0,83,0.00,,BKN055,0.00,VWS V13.01,2013-06-16 04:06:00,
2013-06-16 00:11:00,67.2,61.9,29.97,East,98,0.0,0.0,83,0.00,,BKN055,0.00,VWS V13.01,2013-06-16 04:11:00,
2013-06-16 00:16:00,67.1,61.8,29.97,East,98,0.0,0.0,83,0.00,,BKN055,0.00,VWS V13.01,2013-06-16 04:16:00,
2013-06-16 00:21:00,67.0,62.0,29.97,East,98,2.0,3.0,84,0.00,,BKN055,0.00,VWS V13.01,2013-06-16 04:21:00,
2013-06-16 00:26:00,66.8,62.2,29.98,East,98,3.0,5.0,85,0.00,,BKN055,0.00,VWS V13.01,2013-06-16 04:26:00,
2013-06-16 00:31:00,66.6,62.0,29.97,East,98,3.0,5.0,85,0.00,,BKN055,0.00,VWS V13.01,2013-06-16 04:31:00,
2013-06-16 00:36:00,66.5,61.9,29.97,ESE,107,4.0,5.0,85,0.00,,BKN055,0.00,VWS V13.01,2013-06-16 04:36:00,
2013-06-16 00:41:00,66.4,61.8,29.97,ESE,107,5.0,5.0,85,0.00,,BKN055,0.00,VWS V13.01,2013-06-16 04:41:00,
2013-06-16 00:46:00,66.5,62.2,29.97,ESE,108,3.0,5.0,86,0.00,,BKN055,0.00,VWS V13.01,2013-06-16 04:46:00,
2013-06-16 00:51:00,66.6,62.3,29.97,ESE,113,6.0,6.0,86,0.00,,BKN055,0.00,VWS V13.01,2013-06-16 04:51:00,
2013-06-16 00:56:00,66.7,62.4,29.97,SSE,148,6.0,7.0,86,0.00,,BKN055,0.00,VWS V13.01,2013-06-16 04:56:00,
2013-06-16 01:01:00,66.6,62.0,29.97,SSE,161,3.0,7.0,85,0.00,,BKN055,0.00,VWS V13.01,2013-06-16 05:01:00,
2013-06-16 01:06:00,66.7,61.7,29.97,South,171,3.0,8.0,84,0.00,,BKN055,0.00,VWS V13.01,2013-06-16 05:06:00,
2013-06-16 01:11:00,66.8,61.8,29.97,South,175,3.0,8.0,84,0.00,,BKN055,0.00,VWS V13.01,2013-06-16 05:11:00,
2013-06-16 01:16:00,67.0,61.7,29.98,South,180,0.0,8.0,83,0.00,,BKN055,0.00,VWS V13.01,2013-06-16 05:16:00,
2013-06-16 01:21:00,67.3,62.0,29.98,SSW,200,0.0,8.0,83,0.00,,BKN055,0.00,VWS V13.01,2013-06-16 05:21:00,
2013-06-16 01:26:00,67.5,62.2,29.98,SSW,204,2.0,8.0,83,0.00,,BKN055,0.00,VWS V13.01,2013-06-16 05:26:00,
2013-06-16 01:31:00,67.8,62.1,29.97,SSW,207,1.0,3.0,82,0.00,,BKN055,0.00,VWS V13.01,2013-06-16 05:31:00,
2013-06-16 01:36:00,68.2,62.2,29.97,SSW,203,6.0,6.0,81,0.00,,BKN055,0.00,VWS V13.01,2013-06-16 05:36:00,
2013-06-16 01:41:00,68.5,62.1,29.97,SSW,202,3.0,6.0,80,0.00,,BKN055,0.00,VWS V13.01,2013-06-16 05:41:00,
2013-06-16 01:46:00,68.7,62.3,29.97,SSW,202,3.0,6.0,80,0.00,,BKN055,0.00,VWS V13.01,2013-06-16 05:46:00,
2013-06-16 01:51:00,69.0,62.6,29.96,SSW,199,6.0,7.0,80,0.00,,BKN055,0.00,VWS V13.01,2013-06-16 05:51:00,
2013-06-16 01:56:00,69.1,62.3,29.96,SSW,200,4.0,7.0,79,0.00,,BKN055,0.00,VWS V13.01,2013-06-16 05:56:00,
2013-06-16 02:01:00,69.2,62.4,29.96,SSW,199,4.0,6.0,79,0.00,,BKN055,0.00,VWS V13.01,2013-06-16 06:01:00,
2013-06-16 02:06:00,69.2,62.4,29.96,SSW,195,4.0,10.0,79,0.00,,BKN055,0.00,VWS V13.01,2013-06-16 06:06:00,
2013-06-16 02:11:00,69.2,62.1,29.96,SSW,200,4.0,10.0,78,0.00,,BKN055,0.00,VWS V13.01,2013-06-16 06:11:00,
2013-06-16 02:16:00,69.2,62.1,29.96,SSW,205,3.0,10.0,78,0.00,,BKN055,0.00,VWS V13.01,2013-06-16 06:16:00,
2013-06-16 02:21:00,69.3,62.2,29.96,SSW,207,3.0,10.0,78,0.00,,BKN055,0.00,VWS V13.01,2013-06-16 06:21:00,
2013-06-16 02:26:00,69.4,62.2,29.96,SW,217,7.0,10.0,78,0.00,,BKN055,0.00,VWS V13.01,2013-06-16 06:26:00,
2013-06-16 02:31:00,69.7,62.5,29.96,WSW,239,2.0,9.0,78,0.00,,BKN055,0.00,VWS V13.01,2013-06-16 06:31:00,
2013-06-16 02:36:00,69.9,62.4,29.96,SW,228,3.0,10.0,77,0.00,,BKN055,0.00,VWS V13.01,2013-06-16 06:36:00,
2013-06-16 02:41:00,70.2,62.3,29.97,WSW,238,17.0,17.0,76,0.00,,BKN055,0.00,VWS V13.01,2013-06-16 06:41:00,
2013-06-16 02:46:00,71.3,62.6,29.97,WSW,248,23.0,31.0,74,0.00,,BKN055,0.00,VWS V13.01,2013-06-16 06:46:00,
2013-06-16 02:51:00,72.4,63.3,29.97,WSW,252,20.0,31.0,73,0.00,,BKN055,0.00,VWS V13.01,2013-06-16 06:51:00,
2013-06-16 02:56:00,72.5,64.1,29.98,West,269,31.0,33.0,75,0.00,,BKN055,0.00,VWS V13.01,2013-06-16 06:56:00,
2013-06-16 03:01:00,72.4,64.0,29.99,WNW,289,32.0,32.0,75,0.00,,BKN055,0.00,VWS V13.01,2013-06-16 07:01:00,
2013-06-16 03:06:00,71.1,64.3,29.99,WNW,287,20.0,33.0,79,0.00,,BKN055,0.00,VWS V13.01,2013-06-16 07:06:00,
2013-06-16 03:11:00,69.3,63.2,30.00,West,266,27.0,33.0,81,0.00,,BKN055,0.00,VWS V13.01,2013-06-16 07:11:00,
2013-06-16 03:16:00,67.9,62.9,29.99,WNW,283,16.0,33.0,84,0.02,,BKN055,0.02,VWS V13.01,2013-06-16 07:16:00,
2013-06-16 03:21:00,67.9,63.2,29.99,WSW,251,19.0,33.0,85,0.02,,BKN055,0.03,VWS V13.01,2013-06-16 07:21:00,
2013-06-16 03:26:00,67.9,63.2,29.99,WSW,257,17.0,33.0,85,0.03,,BKN055,0.03,VWS V13.01,2013-06-16 07:26:00,
2013-06-16 03:31:00,67.9,63.6,29.99,WSW,254,11.0,16.0,86,0.03,,BKN055,0.04,VWS V13.01,2013-06-16 07:31:00,
2013-06-16 03:36:00,67.9,63.9,29.98,SW,236,5.0,17.0,87,0.04,,BKN055,0.04,VWS V13.01,2013-06-16 07:36:00,
2013-06-16 03:41:00,67.8,63.8,29.97,West,259,4.0,17.0,87,0.05,,BKN055,0.05,VWS V13.01,2013-06-16 07:41:00,
2013-06-16 03:46:00,67.7,63.7,29.96,SW,234,4.0,17.0,87,0.05,,BKN055,0.05,VWS V13.01,2013-06-16 07:46:00,
2013-06-16 03:51:00,67.6,63.6,29.96,WSW,242,3.0,17.0,87,0.05,,BKN055,0.05,VWS V13.01,2013-06-16 07:51:00,
2013-06-16 03:56:00,67.7,63.7,29.95,WSW,248,4.0,17.0,87,0.05,,BKN055,0.05,VWS V13.01,2013-06-16 07:56:00,
2013-06-16 04:01:00,67.7,63.7,29.95,WSW,247,4.0,5.0,87,0.05,,BKN055,0.05,VWS V13.01,2013-06-16 08:01:00,
2013-06-16 04:06:00,67.6,63.9,29.95,WSW,240,6.0,7.0,88,0.05,,BKN055,0.05,VWS V13.01,2013-06-16 08:06:00,
2013-06-16 04:11:00,67.5,63.8,29.95,SW,236,4.0,7.0,88,0.05,,BKN055,0.05,VWS V13.01,2013-06-16 08:11:00,
2013-06-16 04:16:00,67.4,63.7,29.95,SW,228,1.0,7.0,88,0.05,,BKN055,0.05,VWS V13.01,2013-06-16 08:16:00,
2013-06-16 04:21:00,67.4,63.7,29.95,SW,221,0.0,7.0,88,0.05,,BKN055,0.05,VWS V13.01,2013-06-16 08:21:00,
2013-06-16 04:26:00,67.3,63.6,29.95,SW,221,2.0,7.0,88,0.05,,BKN055,0.05,VWS V13.01,2013-06-16 08:26:00,
2013-06-16 04:31:00,67.2,63.5,29.94,SW,222,2.0,2.0,88,0.06,,BKN055,0.06,VWS V13.01,2013-06-16 08:31:00,
2013-06-16 04:36:00,67.2,63.8,29.93,SW,222,0.0,2.0,89,0.03,,BKN055,0.06,VWS V13.01,2013-06-16 08:36:00,
2013-06-16 04:41:00,67.2,63.8,29.93,SW,231,2.0,3.0,89,0.03,,BKN055,0.06,VWS V13.01,2013-06-16 08:41:00,
2013-06-16 04:46:00,67.2,63.8,29.94,WSW,242,4.0,4.0,89,0.03,,BKN055,0.06,VWS V13.01,2013-06-16 08:46:00,
2013-06-16 04:51:00,67.1,63.8,29.94,WSW,248,3.0,5.0,89,0.03,,BKN055,0.06,VWS V13.01,2013-06-16 08:51:00,
2013-06-16 04:56:00,67.1,63.8,29.95,WSW,248,3.0,5.0,89,0.03,,BKN055,0.06,VWS V13.01,2013-06-16 08:56:00,
2013-06-16 05:01:00,67.0,63.7,29.95,West,271,5.0,5.0,89,0.03,,BKN055,0.06,VWS V13.01,2013-06-16 09:01:00,
2013-06-16 05:06:00,66.9,63.2,29.96,West,275,7.0,9.0,88,0.02,,BKN055,0.07,VWS V13.01,2013-06-16 09:06:00,
2013-06-16 05:11:00,67.0,63.3,29.96,West,266,4.0,9.0,88,0.02,,BKN055,0.07,VWS V13.01,2013-06-16 09:11:00,
2013-06-16 05:16:00,67.0,63.0,29.95,West,271,4.0,9.0,87,0.03,,BKN055,0.08,VWS V13.01,2013-06-16 09:16:00,
2013-06-16 05:21:00,66.9,62.6,29.95,West,273,2.0,9.0,86,0.03,,BKN055,0.08,VWS V13.01,2013-06-16 09:21:00,
2013-06-16 05:26:00,66.9,62.6,29.95,West,273,1.0,9.0,86,0.03,,BKN055,0.08,VWS V13.01,2013-06-16 09:26:00,
2013-06-16 05:31:00,66.8,62.5,29.94,West,273,2.0,2.0,86,0.03,,BKN055,0.08,VWS V13.01,2013-06-16 09:31:00,
2013-06-16 05:36:00,66.7,62.7,29.94,West,272,0.0,2.0,87,0.02,,BKN055,0.08,VWS V13.01,2013-06-16 09:36:00,
2013-06-16 05:41:00,66.4,62.4,29.94,West,273,2.0,2.0,87,0.02,,BKN055,0.08,VWS V13.01,2013-06-16 09:41:00,
2013-06-16 05:46:00,66.3,62.3,29.95,West,265,2.0,3.0,87,0.02,,BKN055,0.08,VWS V13.01,2013-06-16 09:46:00,
2013-06-16 05:51:00,66.1,62.1,29.95,SSW,211,1.0,5.0,87,0.02,,BKN055,0.08,VWS V13.01,2013-06-16 09:51:00,
2013-06-16 05:56:00,66.1,62.5,29.95,SSW,197,3.0,5.0,88,0.02,,BKN055,0.08,VWS V13.01,2013-06-16 09:56:00,
2013-06-16 06:01:00,66.0,62.3,29.94,SSW,197,1.0,2.0,88,0.02,,BKN055,0.08,VWS V13.01,2013-06-16 10:01:00,
2013-06-16 06:05:00,65.9,62.6,29.95,SSW,196,2.0,6.0,89,0.02,,BKN055,0.08,VWS V13.01,2013-06-16 10:05:00,
2013-06-16 06:10:00,65.9,62.6,29.95,SSW,196,6.0,6.0,89,0.02,,BKN055,0.08,VWS V13.01,2013-06-16 10:10:00,
2013-06-16 06:15:00,65.8,62.5,29.95,SSW,195,4.0,7.0,89,0.02,,BKN055,0.08,VWS V13.01,2013-06-16 10:15:00,
2013-06-16 06:20:00,65.8,62.5,29.95,South,179,3.0,9.0,89,0.02,,BKN055,0.08,VWS V13.01,2013-06-16 10:20:00,
2013-06-16 06:25:00,65.7,62.4,29.96,SSW,195,6.0,11.0,89,0.02,,BKN055,0.08,VWS V13.01,2013-06-16 10:25:00,
2013-06-16 06:30:00,65.7,62.4,29.97,South,187,3.0,10.0,89,0.02,,BKN055,0.08,VWS V13.01,2013-06-16 10:30:00,
2013-06-16 06:36:00,65.8,62.5,29.97,SSW,208,3.0,14.0,89,0.00,,BKN055,0.08,VWS V13.01,2013-06-16 10:36:00,
2013-06-16 06:41:00,65.9,62.6,29.97,SSW,200,10.0,15.0,89,0.00,,BKN055,0.08,VWS V13.01,2013-06-16 10:41:00,
2013-06-16 06:46:00,65.9,62.6,29.97,SSW,210,2.0,15.0,89,0.00,,BKN055,0.08,VWS V13.01,2013-06-16 10:46:00,
2013-06-16 06:51:00,65.9,62.2,29.97,SSW,201,6.0,15.0,88,0.00,,BKN055,0.08,VWS V13.01,2013-06-16 10:51:00,
2013-06-16 06:56:00,65.9,62.2,29.97,SW,216,3.0,15.0,88,0.01,,BKN055,0.09,VWS V13.01,2013-06-16 10:56:00,
2013-06-16 07:01:00,66.0,62.3,29.97,SW,225,4.0,13.0,88,0.01,,BKN055,0.09,VWS V13.01,2013-06-16 11:01:00,
2013-06-16 07:06:00,66.0,62.3,29.98,SW,222,2.0,13.0,88,0.01,,BKN055,0.09,VWS V13.01,2013-06-16 11:06:00,
2013-06-16 07:11:00,66.0,62.0,29.98,SW,231,11.0,13.0,87,0.01,,BKN055,0.09,VWS V13.01,2013-06-16 11:11:00,
2013-06-16 07:16:00,66.1,62.1,29.98,SSW,209,6.0,13.0,87,0.01,,BKN055,0.09,VWS V13.01,2013-06-16 11:16:00,
2013-06-16 07:21:00,66.1,62.1,29.99,WSW,239,2.0,13.0,87,0.01,,BKN055,0.09,VWS V13.01,2013-06-16 11:21:00,
2013-06-16 07:26:00,66.1,62.1,29.99,SW,217,5.0,13.0,87,0.01,,BKN055,0.09,VWS V13.01,2013-06-16 11:26:00,
2013-06-16 07:31:00,66.1,62.1,29.99,SW,219,6.0,9.0,87,0.01,,BKN055,0.09,VWS V13.01,2013-06-16 11:31:00,
2013-06-16 07:36:00,66.1,62.1,29.99,SSW,212,3.0,10.0,87,0.01,,BKN055,0.09,VWS V13.01,2013-06-16 11:36:00,
2013-06-16 07:41:00,66.1,62.1,29.99,SW,214,12.0,12.0,87,0.01,,BKN055,0.09,VWS V13.01,2013-06-16 11:41:00,
2013-06-16 07:46:00,66.1,62.1,29.99,SSW,209,3.0,12.0,87,0.01,,BKN055,0.09,VWS V13.01,2013-06-16 11:46:00,
2013-06-16 07:51:00,66.1,62.1,29.99,SW,223,3.0,12.0,87,0.01,,BKN055,0.09,VWS V13.01,2013-06-16 11:51:00,
2013-06-16 07:56:00,66.2,62.2,30.00,SW,226,5.0,12.0,87,0.01,,BKN055,0.09,VWS V13.01,2013-06-16 11:56:00,
2013-06-16 08:01:00,66.4,62.4,30.00,WSW,238,6.0,10.0,87,0.01,,BKN055,0.09,VWS V13.01,2013-06-16 12:01:00,
2013-06-16 08:05:00,66.7,62.7,30.00,WSW,239,11.0,17.0,87,0.00,,BKN055,0.09,VWS V13.01,2013-06-16 12:05:00,
2013-06-16 08:10:00,66.9,62.2,30.00,WSW,243,4.0,17.0,85,0.00,,BKN055,0.09,VWS V13.01,2013-06-16 12:10:00,
2013-06-16 08:15:00,67.2,62.2,30.00,WSW,241,14.0,17.0,84,0.00,,BKN055,0.09,VWS V13.01,2013-06-16 12:15:00,
2013-06-16 08:20:00,67.6,62.3,30.00,WSW,248,10.0,18.0,83,0.00,,BKN055,0.09,VWS V13.01,2013-06-16 12:20:00,
2013-06-16 08:25:00,67.8,62.5,29.99,WSW,248,10.0,18.0,83,0.00,,BKN055,0.09,VWS V13.01,2013-06-16 12:25:00,
2013-06-16 08:30:00,67.9,62.5,29.99,West,263,7.0,11.0,83,0.00,,BKN055,0.09,VWS V13.01,2013-06-16 12:30:00,
2013-06-16 08:35:00,68.0,62.7,29.99,West,261,8.0,11.0,83,0.00,,BKN055,0.09,VWS V13.01,2013-06-16 12:35:00,
2013-06-16 08:40:00,68.1,62.8,29.99,West,260,8.0,11.0,83,0.00,,BKN055,0.09,VWS V13.01,2013-06-16 12:40:00,
2013-06-16 08:45:00,68.1,62.8,29.99,West,263,9.0,11.0,83,0.00,,BKN055,0.09,VWS V13.01,2013-06-16 12:45:00,
2013-06-16 08:50:00,68.1,62.8,29.99,WSW,254,4.0,11.0,83,0.00,,BKN055,0.09,VWS V13.01,2013-06-16 12:50:00,
2013-06-16 08:55:00,68.2,62.5,29.99,West,277,6.0,11.0,82,0.00,,BKN055,0.09,VWS V13.01,2013-06-16 12:55:00,
2013-06-16 09:00:00,68.4,62.7,29.99,West,277,4.0,5.0,82,0.00,,BKN055,0.09,VWS V13.01,2013-06-16 13:00:00,
2013-06-16 09:05:00,68.5,62.8,29.99,West,269,7.0,10.0,82,0.00,,BKN055,0.09,VWS V13.01,2013-06-16 13:05:00,
2013-06-16 09:10:00,68.7,63.3,29.99,West,265,5.0,10.0,83,0.00,,BKN055,0.09,VWS V13.01,2013-06-16 13:10:00,
2013-06-16 09:15:00,68.9,63.2,30.00,West,269,11.0,12.0,82,0.00,,BKN055,0.09,VWS V13.01,2013-06-16 13:15:00,
2013-06-16 09:20:00,69.2,63.1,30.00,West,261,5.0,12.0,81,0.00,,BKN055,0.09,VWS V13.01,2013-06-16 13:20:00,
2013-06-16 09:25:00,69.4,63.0,30.00,WSW,254,6.0,12.0,80,0.00,,BKN055,0.09,VWS V13.01,2013-06-16 13:25:00,
2013-06-16 09:30:00,69.5,63.1,30.00,WSW,257,5.0,8.0,80,0.00,,BKN055,0.09,VWS V13.01,2013-06-16 13:30:00,
2013-06-16 09:35:00,69.6,63.2,30.00,WSW,240,6.0,13.0,80,0.00,,BKN055,0.09,VWS V13.01,2013-06-16 13:35:00,
2013-06-16 09:40:00,69.6,63.2,30.00,SW,227,6.0,13.0,80,0.00,,BKN055,0.09,VWS V13.01,2013-06-16 13:40:00,
2013-06-16 09:45:00,69.4,63.0,30.01,SW,234,9.0,15.0,80,0.00,,BKN055,0.09,VWS V13.01,2013-06-16 13:45:00,
2013-06-16 09:50:00,69.3,63.2,30.01,SW,234,2.0,15.0,81,0.00,,BKN055,0.09,VWS V13.01,2013-06-16 13:50:00,
2013-06-16 09:55:00,69.4,63.3,30.01,WSW,238,5.0,15.0,81,0.00,,BKN055,0.09,VWS V13.01,2013-06-16 13:55:00,
2013-06-16 10:00:00,69.2,63.1,30.02,SW,223,4.0,5.0,81,0.00,,BKN055,0.09,VWS V13.01,2013-06-16 14:00:00,
2013-06-16 10:05:00,69.1,63.4,30.02,SW,223,8.0,12.0,82,0.00,,BKN055,0.09,VWS V13.01,2013-06-16 14:05:00,
2013-06-16 10:10:00,69.0,63.3,30.01,SW,232,9.0,12.0,82,0.00,,BKN055,0.09,VWS V13.01,2013-06-16 14:10:00,
2013-06-16 10:15:00,69.0,63.3,30.01,WSW,241,11.0,12.0,82,0.00,,BKN055,0.09,VWS V13.01,2013-06-16 14:15:00,
2013-06-16 10:20:00,69.0,63.6,30.01,SW,235,3.0,12.0,83,0.00,,BKN055,0.09,VWS V13.01,2013-06-16 14:20:00,
2013-06-16 10:25:00,69.0,63.3,30.01,SW,234,4.0,16.0,82,0.00,,BKN055,0.09,VWS V13.01,2013-06-16 14:25:00,
2013-06-16 10:30:00,69.0,63.6,30.01,WSW,241,10.0,16.0,83,0.00,,BKN055,0.09,VWS V13.01,2013-06-16 14:30:00,
2013-06-16 10:35:00,68.9,63.2,30.01,WSW,240,11.0,15.0,82,0.00,,BKN055,0.09,VWS V13.01,2013-06-16 14:35:00,
2013-06-16 10:40:00,69.1,63.4,30.01,WSW,242,14.0,16.0,82,0.00,,BKN055,0.09,VWS V13.01,2013-06-16 14:40:00,
2013-06-16 10:45:00,69.2,63.8,30.01,WSW,242,13.0,16.0,83,0.00,,BKN055,0.09,VWS V13.01,2013-06-16 14:45:00,
2013-06-16 10:50:00,69.2,63.5,30.01,WSW,242,11.0,16.0,82,0.00,,SCT110,0.09,VWS V13.01,2013-06-16 14:50:00,
2013-06-16 10:55:00,69.2,63.5,30.01,WSW,256,11.0,16.0,82,0.00,,SCT110,0.09,VWS V13.01,2013-06-16 14:55:00,
2013-06-16 11:00:00,69.3,63.2,30.01,WSW,244,9.0,16.0,81,0.00,,SCT110,0.09,VWS V13.01,2013-06-16 15:00:00,
2013-06-16 11:05:00,69.5,63.8,30.01,WSW,244,11.0,14.0,82,0.00,,SCT110,0.09,VWS V13.01,2013-06-16 15:05:00,
2013-06-16 11:10:00,69.7,64.0,30.01,WSW,239,6.0,16.0,82,0.00,,SCT110,0.09,VWS V13.01,2013-06-16 15:10:00,
2013-06-16 11:15:00,69.8,63.4,30.01,WSW,247,8.0,18.0,80,0.00,,SCT110,0.09,VWS V13.01,2013-06-16 15:15:00,
2013-06-16 11:20:00,70.0,64.3,30.01,WSW,238,7.0,18.0,82,0.00,,SCT110,0.09,VWS V13.01,2013-06-16 15:20:00,
2013-06-16 11:25:00,70.2,64.1,30.01,SW,234,10.0,18.0,81,0.00,,SCT110,0.09,VWS V13.01,2013-06-16 15:25:00,
2013-06-16 11:30:00,70.5,64.4,30.01,SW,224,4.0,18.0,81,0.00,,SCT110,0.09,VWS V13.01,2013-06-16 15:30:00,
2013-06-16 11:35:00,70.8,64.3,30.01,WSW,240,11.0,17.0,80,0.00,,SCT110,0.09,VWS V13.01,2013-06-16 15:35:00,
2013-06-16 11:40:00,71.1,64.6,30.01,WSW,248,16.0,17.0,80,0.00,,SCT110,0.09,VWS V13.01,2013-06-16 15:40:00,
2013-06-16 11:45:00,71.1,64.6,30.01,WSW,249,12.0,18.0,80,0.00,,SCT110,0.09,VWS V13.01,2013-06-16 15:45:00,
2013-06-16 11:50:00,71.5,65.4,30.00,SW,229,10.0,18.0,81,0.00,,OVC090,0.09,VWS V13.01,2013-06-16 15:50:00,
2013-06-16 11:55:00,71.9,65.0,30.01,WSW,246,13.0,18.0,79,0.00,,OVC090,0.09,VWS V13.01,2013-06-16 15:55:00,
2013-06-16 12:00:00,72.2,65.3,30.01,WSW,257,4.0,21.0,79,0.00,,OVC090,0.09,VWS V13.01,2013-06-16 16:00:00,
2013-06-16 12:05:00,72.7,65.1,30.01,SW,234,18.0,21.0,77,0.00,,SCT110,0.09,VWS V13.01,2013-06-16 16:05:00,
2013-06-16 12:10:00,72.8,64.8,30.00,West,261,19.0,23.0,76,0.00,,SCT110,0.09,VWS V13.01,2013-06-16 16:10:00,
2013-06-16 12:15:00,73.0,65.0,30.01,West,259,21.0,23.0,76,0.00,,SCT110,0.09,VWS V13.01,2013-06-16 16:15:00,
2013-06-16 12:20:00,73.1,65.8,30.01,WSW,246,15.0,23.0,78,0.00,,OVC090,0.09,VWS V13.01,2013-06-16 16:20:00,
2013-06-16 12:25:00,73.3,66.0,30.01,WSW,257,20.0,23.0,78,0.00,,OVC090,0.09,VWS V13.01,2013-06-16 16:25:00,
2013-06-16 12:30:00,73.6,65.9,30.01,WSW,246,19.0,23.0,77,0.00,,OVC090,0.09,VWS V13.01,2013-06-16 16:30:00,
2013-06-16 12:35:00,74.0,66.7,30.00,WSW,250,13.0,23.0,78,0.00,,OVC090,0.09,VWS V13.01,2013-06-16 16:35:00,
2013-06-16 12:40:00,74.2,66.2,30.01,WSW,256,18.0,23.0,76,0.00,,OVC090,0.09,VWS V13.01,2013-06-16 16:40:00,
2013-06-16 12:45:00,74.4,66.3,30.00,WSW,250,16.0,23.0,76,0.00,,OVC090,0.09,VWS V13.01,2013-06-16 16:45:00,
2013-06-16 12:50:00,74.0,65.6,30.00,West,259,14.0,23.0,75,0.00,,OVC090,0.09,VWS V13.01,2013-06-16 16:50:00,
2013-06-16 12:55:00,74.2,65.8,30.00,WSW,249,13.0,23.0,75,0.00,,OVC090,0.09,VWS V13.01,2013-06-16 16:55:00,
2013-06-16 13:00:00,74.5,65.7,30.00,WSW,246,13.0,23.0,74,0.00,,OVC090,0.09,VWS V13.01,2013-06-16 17:00:00,
2013-06-16 13:05:00,74.8,66.3,30.00,West,265,17.0,20.0,75,0.00,,OVC090,0.09,VWS V13.01,2013-06-16 17:05:00,
2013-06-16 13:10:00,75.3,66.8,29.99,WSW,245,14.0,20.0,75,0.00,,OVC090,0.09,VWS V13.01,2013-06-16 17:10:00,
2013-06-16 13:15:00,75.4,65.3,29.99,SW,222,13.0,21.0,71,0.00,,OVC090,0.09,VWS V13.01,2013-06-16 17:15:00,
2013-06-16 13:20:00,75.2,65.6,29.99,WSW,251,12.0,21.0,72,0.00,,OVC090,0.09,VWS V13.01,2013-06-16 17:20:00,
2013-06-16 13:25:00,75.7,65.6,29.99,WSW,252,14.0,21.0,71,0.00,,OVC090,0.09,VWS V13.01,2013-06-16 17:25:00,
2013-06-16 13:30:00,76.2,67.3,29.99,SW,225,12.0,21.0,74,0.00,,OVC090,0.09,VWS V13.01,2013-06-16 17:30:00,
2013-06-16 13:35:00,76.6,66.5,29.98,WSW,244,15.0,20.0,71,0.00,,OVC090,0.09,VWS V13.01,2013-06-16 17:35:00,
2013-06-16 13:40:00,76.4,67.1,29.98,SW,214,11.0,20.0,73,0.00,,OVC090,0.09,VWS V13.01,2013-06-16 17:40:00,
2013-06-16 13:45:00,76.5,66.0,29.99,WSW,247,14.0,20.0,70,0.00,,OVC090,0.09,VWS V13.01,2013-06-16 17:45:00,
2013-06-16 13:50:00,76.6,67.7,29.98,SW,229,10.0,20.0,74,0.00,,OVC090,0.09,VWS V13.01,2013-06-16 17:50:00,
2013-06-16 13:55:00,76.9,67.2,29.98,WSW,248,18.0,21.0,72,0.00,,OVC090,0.09,VWS V13.01,2013-06-16 17:55:00,
2013-06-16 14:00:00,77.5,67.4,29.98,SW,236,14.0,21.0,71,0.00,,OVC090,0.09,VWS V13.01,2013-06-16 18:00:00,
2013-06-16 14:05:00,76.9,66.8,29.98,SSW,202,14.0,22.0,71,0.00,,OVC090,0.09,VWS V13.01,2013-06-16 18:05:00,
2013-06-16 14:10:00,76.6,66.1,29.98,SW,227,23.0,23.0,70,0.00,,OVC090,0.09,VWS V13.01,2013-06-16 18:10:00,
2013-06-16 14:15:00,76.5,65.6,29.98,WSW,251,16.0,23.0,69,0.00,,OVC090,0.09,VWS V13.01,2013-06-16 18:15:00,
2013-06-16 14:20:00,77.2,67.5,29.98,WSW,252,16.0,23.0,72,0.00,,OVC090,0.09,VWS V13.01,2013-06-16 18:20:00,
2013-06-16 14:25:00,77.5,66.9,29.98,WSW,241,8.0,23.0,70,0.00,,OVC090,0.09,VWS V13.01,2013-06-16 18:25:00,
2013-06-16 14:30:00,77.3,65.9,29.98,WSW,238,9.0,23.0,68,0.00,,OVC090,0.09,VWS V13.01,2013-06-16 18:30:00,
2013-06-16 14:35:00,76.7,66.6,29.98,WSW,241,13.0,17.0,71,0.00,,OVC090,0.09,VWS V13.01,2013-06-16 18:35:00,
2013-06-16 14:40:00,76.7,67.0,29.98,WSW,250,16.0,20.0,72,0.00,,OVC090,0.09,VWS V13.01,2013-06-16 18:40:00,
2013-06-16 14:45:00,76.6,66.5,29.98,West,267,10.0,20.0,71,0.00,,OVC090,0.09,VWS V13.01,2013-06-16 18:45:00,
2013-06-16 14:50:00,76.3,66.6,29.98,WSW,244,13.0,20.0,72,0.00,,OVC090,0.09,VWS V13.01,2013-06-16 18:50:00,
2013-06-16 14:55:00,76.3,66.2,29.98,WSW,252,18.0,20.0,71,0.00,,OVC090,0.09,VWS V13.01,2013-06-16 18:55:00,
2013-06-16 15:00:00,76.4,66.3,29.98,SW,228,16.0,22.0,71,0.00,,OVC090,0.09,VWS V13.01,2013-06-16 19:00:00,
2013-06-16 15:05:00,76.4,66.3,29.98,SW,225,7.0,22.0,71,0.00,,OVC028,0.09,VWS V13.01,2013-06-16 19:05:00,
2013-06-16 15:10:00,76.8,67.1,29.98,WSW,249,16.0,22.0,72,0.00,,OVC028,0.09,VWS V13.01,2013-06-16 19:10:00,
2013-06-16 15:15:00,76.7,66.2,29.98,WSW,238,8.0,23.0,70,0.00,,OVC028,0.09,VWS V13.01,2013-06-16 19:15:00,
2013-06-16 15:20:00,77.1,66.2,29.98,WSW,249,17.0,23.0,69,0.00,,OVC028,0.09,VWS V13.01,2013-06-16 19:20:00,
2013-06-16 15:25:00,76.6,66.1,29.98,WSW,246,17.0,23.0,70,0.00,,OVC028,0.09,VWS V13.01,2013-06-16 19:25:00,
2013-06-16 15:30:00,76.5,66.4,29.97,WSW,254,19.0,23.0,71,0.00,,OVC028,0.09,VWS V13.01,2013-06-16 19:30:00,
2013-06-16 15:35:00,76.7,66.2,29.97,WSW,250,12.0,17.0,70,0.00,,OVC028,0.09,VWS V13.01,2013-06-16 19:35:00,
2013-06-16 15:40:00,76.9,66.4,29.98,WSW,248,13.0,20.0,70,0.00,,OVC028,0.09,VWS V13.01,2013-06-16 19:40:00,
2013-06-16 15:45:00,76.7,66.6,29.98,West,260,14.0,20.0,71,0.00,,OVC028,0.09,VWS V13.01,2013-06-16 19:45:00,
2013-06-16 15:50:00,76.9,67.2,29.98,WSW,246,14.0,20.0,72,0.00,,BKN027,0.09,VWS V13.01,2013-06-16 19:50:00,
2013-06-16 15:55:00,77.0,66.1,29.98,WSW,256,13.0,20.0,69,0.00,,BKN027,0.09,VWS V13.01,2013-06-16 19:55:00,
2013-06-16 16:00:00,77.2,66.7,29.97,WSW,248,14.0,20.0,70,0.00,,BKN027,0.09,VWS V13.01,2013-06-16 20:00:00,
2013-06-16 16:05:00,77.0,65.6,29.98,West,259,20.0,23.0,68,0.00,,BKN027,0.09,VWS V13.01,2013-06-16 20:05:00,
2013-06-16 16:10:00,77.0,65.6,29.98,WSW,245,16.0,23.0,68,0.00,,BKN027,0.09,VWS V13.01,2013-06-16 20:10:00,
2013-06-16 16:15:00,77.4,66.9,29.98,WSW,258,11.0,23.0,70,0.00,,BKN027,0.09,VWS V13.01,2013-06-16 20:15:00,
2013-06-16 16:20:00,77.5,66.5,29.98,West,263,13.0,23.0,69,0.00,,BKN027,0.09,VWS V13.01,2013-06-16 20:20:00,
2013-06-16 16:25:00,77.1,66.2,29.98,WSW,246,14.0,23.0,69,0.00,,BKN027,0.09,VWS V13.01,2013-06-16 20:25:00,
2013-06-16 16:30:00,76.7,66.2,29.97,WSW,254,13.0,23.0,70,0.00,,BKN027,0.09,VWS V13.01,2013-06-16 20:30:00,
2013-06-16 16:35:00,76.7,66.2,29.97,WSW,248,14.0,17.0,70,0.00,,BKN027,0.09,VWS V13.01,2013-06-16 20:35:00,
2013-06-16 16:40:00,76.9,67.6,29.97,WSW,243,12.0,17.0,73,0.00,,BKN027,0.09,VWS V13.01,2013-06-16 20:40:00,
2013-06-16 16:45:00,77.3,67.6,29.97,WSW,242,10.0,17.0,72,0.00,,BKN027,0.09,VWS V13.01,2013-06-16 20:45:00,
2013-06-16 16:50:00,77.9,68.2,29.97,WSW,242,16.0,18.0,72,0.00,,BKN027,0.09,VWS V13.01,2013-06-16 20:50:00,
2013-06-16 16:55:00,77.2,67.5,29.97,WSW,254,12.0,18.0,72,0.00,,BKN027,0.09,VWS V13.01,2013-06-16 20:55:00,
2013-06-16 17:00:00,77.0,66.9,29.97,SW,227,16.0,18.0,71,0.00,,BKN027,0.09,VWS V13.01,2013-06-16 21:00:00,
2013-06-16 17:05:00,77.8,68.1,29.96,WSW,237,14.0,17.0,72,0.00,,BKN027,0.09,VWS V13.01,2013-06-16 21:05:00,
2013-06-16 17:10:00,77.4,66.4,29.96,WSW,239,10.0,18.0,69,0.00,,BKN027,0.09,VWS V13.01,2013-06-16 21:10:00,
2013-06-16 17:15:00,78.2,68.8,29.96,SW,227,14.0,18.0,73,0.00,,BKN027,0.09,VWS V13.01,2013-06-16 21:15:00,
2013-06-16 17:20:00,78.7,67.7,29.96,WSW,249,7.0,20.0,69,0.00,,BKN027,0.09,VWS V13.01,2013-06-16 21:20:00,
2013-06-16 17:25:00,78.1,67.9,29.96,WSW,242,9.0,20.0,71,0.00,,BKN027,0.09,VWS V13.01,2013-06-16 21:25:00,
2013-06-16 17:30:00,77.7,67.6,29.96,WSW,242,14.0,20.0,71,0.00,,BKN027,0.09,VWS V13.01,2013-06-16 21:30:00,
2013-06-16 17:35:00,77.2,67.5,29.96,WSW,257,13.0,18.0,72,0.00,,BKN040,0.09,VWS V13.01,2013-06-16 21:35:00,
2013-06-16 17:40:00,77.4,68.1,29.95,WSW,240,12.0,18.0,73,0.00,,BKN040,0.09,VWS V13.01,2013-06-16 21:40:00,
2013-06-16 17:45:00,78.2,68.0,29.95,WSW,242,15.0,18.0,71,0.00,,BKN040,0.09,VWS V13.01,2013-06-16 21:45:00,
2013-06-16 17:50:00,78.4,68.6,29.95,West,267,18.0,18.0,72,0.00,,BKN040,0.09,VWS V13.01,2013-06-16 21:50:00,
2013-06-16 17:55:00,78.6,67.2,29.95,WSW,257,10.0,18.0,68,0.00,,BKN040,0.09,VWS V13.01,2013-06-16 21:55:00,
2013-06-16 18:00:00,78.7,68.1,29.95,WSW,252,17.0,18.0,70,0.00,,BKN040,0.09,VWS V13.01,2013-06-16 22:00:00,
2013-06-16 18:05:00,78.1,66.3,29.95,West,260,18.0,20.0,67,0.00,,BKN040,0.09,VWS V13.01,2013-06-16 22:05:00,
2013-06-16 18:10:00,77.5,66.5,29.95,WSW,258,16.0,21.0,69,0.00,,BKN040,0.09,VWS V13.01,2013-06-16 22:10:00,
2013-06-16 18:15:00,78.1,67.9,29.95,West,269,18.0,21.0,71,0.00,,BKN040,0.09,VWS V13.01,2013-06-16 22:15:00,
2013-06-16 18:20:00,78.4,67.8,29.95,WSW,252,18.0,21.0,70,0.00,,BKN040,0.09,VWS V13.01,2013-06-16 22:20:00,
2013-06-16 18:25:00,78.6,68.0,29.95,West,263,16.0,21.0,70,0.00,,BKN040,0.09,VWS V13.01,2013-06-16 22:25:00,
2013-06-16 18:30:00,77.8,67.2,29.94,West,271,15.0,21.0,70,0.00,,BKN040,0.09,VWS V13.01,2013-06-16 22:30:00,
2013-06-16 18:35:00,77.5,66.5,29.95,West,261,20.0,21.0,69,0.00,,BKN040,0.09,VWS V13.01,2013-06-16 22:35:00,
2013-06-16 18:40:00,77.5,67.4,29.95,West,271,15.0,21.0,71,0.00,,BKN040,0.09,VWS V13.01,2013-06-16 22:40:00,
2013-06-16 18:45:00,77.3,66.8,29.95,West,274,15.0,21.0,70,0.00,,BKN040,0.09,VWS V13.01,2013-06-16 22:45:00,
2013-06-16 18:50:00,77.3,66.3,29.95,West,263,15.0,21.0,69,0.00,,BKN040,0.09,VWS V13.01,2013-06-16 22:50:00,
2013-06-16 18:55:00,77.4,67.3,29.95,West,269,8.0,21.0,71,0.00,,BKN040,0.09,VWS V13.01,2013-06-16 22:55:00,
2013-06-16 19:00:00,77.1,67.0,29.96,West,278,12.0,21.0,71,0.00,,BKN040,0.09,VWS V13.01,2013-06-16 23:00:00,
2013-06-16 19:05:00,76.8,67.1,29.96,West,270,9.0,15.0,72,0.00,,BKN040,0.09,VWS V13.01,2013-06-16 23:05:00,
2013-06-16 19:10:00,76.8,66.7,29.96,West,263,11.0,15.0,71,0.00,,BKN040,0.09,VWS V13.01,2013-06-16 23:10:00,
2013-06-16 19:15:00,76.8,67.1,29.96,West,261,9.0,15.0,72,0.00,,BKN040,0.09,VWS V13.01,2013-06-16 23:15:00,
2013-06-16 19:20:00,76.9,67.2,29.96,WSW,256,12.0,17.0,72,0.00,,BKN040,0.09,VWS V13.01,2013-06-16 23:20:00,
2013-06-16 19:25:00,77.3,67.6,29.96,West,259,15.0,19.0,72,0.00,,BKN040,0.09,VWS V13.01,2013-06-16 23:25:00,
2013-06-16 19:30:00,77.7,67.1,29.96,WSW,256,14.0,19.0,70,0.00,,BKN040,0.09,VWS V13.01,2013-06-16 23:30:00,
2013-06-16 19:35:00,77.4,67.3,29.96,West,261,13.0,17.0,71,0.00,,BKN040,0.09,VWS V13.01,2013-06-16 23:35:00,
2013-06-16 19:40:00,76.8,66.7,29.96,West,266,11.0,17.0,71,0.00,,BKN040,0.09,VWS V13.01,2013-06-16 23:40:00,
2013-06-16 19:45:00,76.3,66.6,29.96,WSW,244,5.0,17.0,72,0.00,,BKN040,0.09,VWS V13.01,2013-06-16 23:45:00,
2013-06-16 19:50:00,76.3,66.6,29.96,WSW,244,9.0,17.0,72,0.00,,BKN040,0.09,VWS V13.01,2013-06-16 23:50:00,
2013-06-16 19:55:00,76.4,66.7,29.96,WSW,246,11.0,17.0,72,0.00,,BKN040,0.09,VWS V13.01,2013-06-16 23:55:00,
2013-06-16 20:00:00,76.4,66.7,29.96,WSW,248,10.0,17.0,72,0.00,,BKN040,0.09,VWS V13.01,2013-06-17 00:00:00,
2013-06-16 20:05:00,76.4,66.3,29.96,WSW,254,14.0,16.0,71,0.00,,BKN040,0.09,VWS V13.01,2013-06-17 00:05:00,
2013-06-16 20:10:00,76.3,66.6,29.96,WSW,247,9.0,16.0,72,0.00,,BKN040,0.09,VWS V13.01,2013-06-17 00:10:00,
2013-06-16 20:15:00,76.6,66.9,29.96,West,260,14.0,16.0,72,0.00,,BKN040,0.09,VWS V13.01,2013-06-17 00:15:00,
2013-06-16 20:20:00,76.6,66.5,29.96,WSW,240,12.0,16.0,71,0.00,,BKN040,0.09,VWS V13.01,2013-06-17 00:20:00,
2013-06-16 20:25:00,76.5,66.8,29.95,WSW,254,12.0,16.0,72,0.00,,BKN040,0.09,VWS V13.01,2013-06-17 00:25:00,
2013-06-16 20:30:00,76.1,66.0,29.96,West,259,12.0,16.0,71,0.00,,BKN040,0.09,VWS V13.01,2013-06-17 00:30:00,
2013-06-16 20:35:00,75.8,66.5,29.96,West,261,10.0,14.0,73,0.00,,BKN040,0.09,VWS V13.01,2013-06-17 00:35:00,
2013-06-16 20:40:00,75.5,66.2,29.96,WSW,256,12.0,14.0,73,0.00,,BKN040,0.09,VWS V13.01,2013-06-17 00:40:00,
2013-06-16 20:45:00,75.3,66.4,29.96,WSW,246,7.0,14.0,74,0.00,,BKN040,0.09,VWS V13.01,2013-06-17 00:45:00,
2013-06-16 20:50:00,75.0,66.6,29.96,West,261,9.0,14.0,75,0.00,,BKN040,0.09,VWS V13.01,2013-06-17 00:50:00,
2013-06-16 20:55:00,74.8,66.3,29.96,WSW,252,6.0,14.0,75,0.00,,BKN040,0.09,VWS V13.01,2013-06-17 00:55:00,
2013-06-16 21:00:00,74.6,66.2,29.95,WSW,247,3.0,14.0,75,0.00,,BKN040,0.09,VWS V13.01,2013-06-17 01:00:00,
2013-06-16 21:05:00,74.3,66.2,29.95,WSW,245,5.0,7.0,76,0.00,,BKN040,0.09,VWS V13.01,2013-06-17 01:05:00,
2013-06-16 21:10:00,74.0,66.0,29.95,WSW,244,6.0,7.0,76,0.00,,BKN040,0.09,VWS V13.01,2013-06-17 01:10:00,
2013-06-16 21:15:00,73.8,66.2,29.96,WSW,244,5.0,7.0,77,0.00,,BKN040,0.09,VWS V13.01,2013-06-17 01:15:00,
2013-06-16 21:20:00,73.6,65.9,29.95,WSW,240,4.0,7.0,77,0.00,,BKN040,0.09,VWS V13.01,2013-06-17 01:20:00,
2013-06-16 21:25:00,73.3,66.0,29.95,WSW,240,4.0,7.0,78,0.00,,BKN040,0.09,VWS V13.01,2013-06-17 01:25:00,
2013-06-16 21:30:00,73.1,65.8,29.95,WSW,240,3.0,7.0,78,0.00,,BKN040,0.09,VWS V13.01,2013-06-17 01:30:00,
2013-06-16 21:35:00,72.8,65.9,29.96,WSW,240,4.0,6.0,79,0.00,,BKN040,0.09,VWS V13.01,2013-06-17 01:35:00,
2013-06-16 21:40:00,72.6,65.7,29.96,WSW,240,3.0,6.0,79,0.00,,BKN040,0.09,VWS V13.01,2013-06-17 01:40:00,
2013-06-16 21:45:00,72.4,65.9,29.96,WSW,240,5.0,6.0,80,0.00,,BKN040,0.09,VWS V13.01,2013-06-17 01:45:00,
2013-06-16 21:50:00,72.2,65.7,29.96,WSW,240,2.0,6.0,80,0.00,,BKN040,0.09,VWS V13.01,2013-06-17 01:50:00,
2013-06-16 21:55:00,71.9,65.8,29.96,WSW,240,4.0,6.0,81,0.00,,BKN040,0.09,VWS V13.01,2013-06-17 01:55:00,
2013-06-16 22:00:00,71.7,65.6,29.96,WSW,240,2.0,6.0,81,0.00,,BKN040,0.09,VWS V13.01,2013-06-17 02:00:00,
2013-06-16 22:05:00,71.4,65.3,29.96,WSW,240,3.0,5.0,81,0.00,,BKN040,0.09,VWS V13.01,2013-06-17 02:05:00,
2013-06-16 22:10:00,71.2,65.4,29.97,WSW,240,2.0,5.0,82,0.00,,BKN040,0.09,VWS V13.01,2013-06-17 02:10:00,
2013-06-16 22:15:00,71.0,65.2,29.97,WSW,240,3.0,5.0,82,0.00,,BKN040,0.09,VWS V13.01,2013-06-17 02:15:00,
2013-06-16 22:20:00,70.8,65.0,29.97,WSW,240,5.0,5.0,82,0.00,,BKN040,0.09,VWS V13.01,2013-06-17 02:20:00,
2013-06-16 22:25:00,70.6,65.2,29.97,WSW,240,3.0,5.0,83,0.00,,BKN040,0.09,VWS V13.01,2013-06-17 02:25:00,
2013-06-16 22:30:00,70.4,65.0,29.97,WSW,240,3.0,5.0,83,0.00,,BKN040,0.09,VWS V13.01,2013-06-17 02:30:00,
2013-06-16 22:35:00,70.2,64.8,29.97,WSW,240,1.0,4.0,83,0.00,,BKN040,0.09,VWS V13.01,2013-06-17 02:35:00,
2013-06-16 22:40:00,70.1,65.1,29.98,WSW,240,2.0,4.0,84,0.00,,BKN040,0.09,VWS V13.01,2013-06-17 02:40:00,
2013-06-16 22:45:00,69.9,64.8,29.98,SW,234,1.0,6.0,84,0.00,,BKN040,0.09,VWS V13.01,2013-06-17 02:45:00,
2013-06-16 22:50:00,69.7,64.7,29.98,SW,233,1.0,6.0,84,0.00,,BKN040,0.09,VWS V13.01,2013-06-17 02:50:00,
2013-06-16 22:55:00,69.5,64.5,29.98,SW,231,2.0,6.0,84,0.00,,BKN040,0.09,VWS V13.01,2013-06-17 02:55:00,
2013-06-16 23:00:00,69.4,64.7,29.98,SW,231,3.0,6.0,85,0.00,,BKN040,0.09,VWS V13.01,2013-06-17 03:00:00,
2013-06-16 23:05:00,69.2,64.8,29.98,SW,231,2.0,3.0,86,0.00,,BKN040,0.09,VWS V13.01,2013-06-17 03:05:00,
2013-06-16 23:09:00,69.1,64.7,29.98,SW,231,1.0,4.0,86,0.00,,BKN040,0.09,VWS V13.01,2013-06-17 03:09:00,
2013-06-16 23:14:00,68.9,64.6,29.98,SW,225,1.0,4.0,86,0.00,,BKN040,0.09,VWS V13.01,2013-06-17 03:14:00,
2013-06-16 23:19:00,68.8,64.8,29.98,SW,222,2.0,6.0,87,0.00,,BKN040,0.09,VWS V13.01,2013-06-17 03:19:00,
2013-06-16 23:24:00,68.7,64.7,29.98,SW,219,2.0,6.0,87,0.00,,BKN040,0.09,VWS V13.01,2013-06-17 03:24:00,
2013-06-16 23:29:00,68.7,64.7,29.98,SW,217,1.0,6.0,87,0.00,,BKN040,0.09,VWS V13.01,2013-06-17 03:29:00,
2013-06-16 23:34:00,68.6,64.6,29.98,SW,214,0.0,6.0,87,0.00,,BKN040,0.09,VWS V13.01,2013-06-17 03:34:00,
2013-06-16 23:39:00,68.5,64.5,29.98,SW,217,2.0,6.0,87,0.00,,BKN040,0.09,VWS V13.01,2013-06-17 03:39:00,
2013-06-16 23:44:00,68.5,64.5,29.97,SW,218,2.0,6.0,87,0.00,,BKN040,0.09,VWS V13.01,2013-06-17 03:44:00,
2013-06-16 23:49:00,68.4,64.4,29.98,SW,217,3.0,6.0,87,0.00,,BKN040,0.09,VWS V13.01,2013-06-17 03:49:00,
2013-06-16 23:54:00,68.3,64.3,29.98,SW,217,3.0,6.0,87,0.00,,BKN040,0.09,VWS V13.01,2013-06-17 03:54:00,
2013-06-16 23:59:00,68.3,64.6,29.98,SW,217,0.0,6.0,88,0.00,,BKN040,0.09,VWS V13.01,2013-06-17 03:59:00,